"Pseudo-MPEC" for iMB5006

Created 2019 Nov 10 6:07:19 UT using Find_Orb

Click here for an explanation of pseudo-MPECs

 
 Astrometry: 
     iMB5006  C2019 11 06bA;U')MNy2YVv`)9^,#Usi3BAFqm'iBC0]S7fZ?elyBB_%5w29S+J43
     iMB5006  C2019 11 06\@M#AxKHhAstrometrymERPRDp3c\YXredacted;VV]kSI^`/A[6J43
     iMB5006  C2019 11 06x5#$#pclickIUSqi=-HY?$5VhereJC.)5)dK\f:_D=0nMdJ5mwB;J43
     iMB5006  C2019 11 061atFDCx,Mg6k8L2S1VJu$Q`(for2uu/rk@Y?AQcd)okp_7ceIpwYJ43
     iMB5006  C2019 11 06@L8r2@*bpmZa4m/yCM(l?y,VbqY2HlRuexplanation*$a%bIuV)J43

Station data:
(J43) Oukaïmeden Observatory, Marrakech  (N31.206440 W7.866460)  Morocco.
   Observer C. Rinner. Measurers C. Rinner, M. Ory. 0.5-m f/3 reflector + CCD.

Orbital elements:  iMB5006
   Perihelion 2019 Nov 27.869366 +/- 43.3 TT = 20:51:53 (JD 2458815.369366)
Epoch 2019 Nov  6.0 TT = JDT 2458793.5   Earth MOID: 0.3221   AutoNEOCP
M 353.82326278 +/- 34               (J2000 ecliptic)
n   0.28243786 +/- 0.224            Peri.  201.39204 +/- 60
a   2.30066877 +/- 1.21             Node   225.92449 +/- 43
e   0.4375990 +/- 0.17              Incl.   24.09621 +/- 8
P   3.49                   H 22.0   G  0.15   U 11.7  SR
q 1.29389836 +/- 0.284    Q 3.30743917 +/- 1.06
4 of 5 observations 2019 Nov. 6 (36.6 min); mean residual 0".48
Residuals in arcseconds: 
191106 J43  .24+  .15+    191106 J43  .59-  .63-    191106 J43  .11-  .33-    
191106 J43( .24+  .15+)   191106 J43  .45+  .81+    

Ephemerides (geocentric):
Date (UTC) HH   RA              Dec         delta   r     elong  mag " sig PA
---- -- -- --  -------------   -----------  ------ ------ -----  --- ---- ---
2019 11 10 06  04 35 42.026   +10 18 04.27  .33806 1.3058 155.6 21.1  35d  13
2019 11 10 07  04 35 43.991   +10 14 50.50  .33799 1.3058 155.7 21.1  35d  13
2019 11 10 08  04 35 45.950   +10 11 36.67  .33792 1.3057 155.7 21.1  36d  13
2019 11 10 09  04 35 47.906   +10 08 22.79  .33785 1.3056 155.7 21.1  36d  14
2019 11 10 10  04 35 49.856   +10 05 08.85  .33778 1.3056 155.7 21.1  36d  14
2019 11 10 11  04 35 51.802   +10 01 54.85  .33771 1.3055 155.7 21.1  37d  15
2019 11 10 12  04 35 53.744   +09 58 40.80  .33764 1.3055 155.7 21.1  37d  16
2019 11 10 13  04 35 55.681   +09 55 26.70  .33757 1.3054 155.7 21.1  38d  16
2019 11 10 14  04 35 57.614   +09 52 12.54  .33751 1.3054 155.7 21.1  39d  17
2019 11 10 15  04 35 59.542   +09 48 58.33  .33744 1.3053 155.7 21.1  39d  17
2019 11 10 16  04 36 01.465   +09 45 44.06  .33737 1.3053 155.8 21.1  40d  17
2019 11 10 17  04 36 03.384   +09 42 29.75  .33731 1.3052 155.8 21.1  41d  17
2019 11 10 18  04 36 05.299   +09 39 15.38  .33724 1.3051 155.8 21.1  41d  17
2019 11 10 19  04 36 07.209   +09 36 00.97  .33718 1.3051 155.8 21.1  42d  17
2019 11 10 20  04 36 09.115   +09 32 46.51  .33711 1.3050 155.8 21.1  43d  17
2019 11 10 21  04 36 11.016   +09 29 31.99  .33705 1.3050 155.8 21.1  43d  17
2019 11 10 22  04 36 12.913   +09 26 17.43  .33698 1.3049 155.8 21.1  44d  17
2019 11 10 23  04 36 14.805   +09 23 02.82  .33692 1.3049 155.8 21.1  45d  17
2019 11 11 00  04 36 16.692   +09 19 48.17  .33686 1.3048 155.8 21.1  45d  17
2019 11 11 01  04 36 18.576   +09 16 33.47  .33680 1.3048 155.8 21.1  46d  16
2019 11 11 02  04 36 20.454   +09 13 18.73  .33674 1.3047 155.8 21.1  46d  16
2019 11 11 03  04 36 22.329   +09 10 03.94  .33667 1.3047 155.9 21.1  47d  16
2019 11 11 04  04 36 24.198   +09 06 49.11  .33661 1.3046 155.9 21.1  47d  15
2019 11 11 05  04 36 26.064   +09 03 34.24  .33655 1.3046 155.9 21.1  47d  15
2019 11 11 06  04 36 27.925   +09 00 19.32  .33649 1.3045 155.9 21.1  47d  15
2019 11 11 07  04 36 29.781   +08 57 04.36  .33644 1.3045 155.9 21.1  47d  14
2019 11 11 08  04 36 31.633   +08 53 49.37  .33638 1.3044 155.9 21.1  48d  14
2019 11 11 09  04 36 33.481   +08 50 34.33  .33632 1.3043 155.9 21.1  48d  14
2019 11 11 10  04 36 35.324   +08 47 19.26  .33626 1.3043 155.9 21.1  49d  10
2019 11 11 11  04 36 37.163   +08 44 04.14  .33620 1.3042 155.9 21.1  49d  10
2019 11 11 12  04 36 38.997   +08 40 48.99  .33615 1.3042 155.9 21.1  49d   9
2019 11 11 13  04 36 40.827   +08 37 33.80  .33609 1.3041 155.9 21.1  49d   9
2019 11 11 14  04 36 42.652   +08 34 18.58  .33604 1.3041 155.9 21.1  49d   9
2019 11 11 15  04 36 44.473   +08 31 03.32  .33598 1.3040 155.9 21.1  49d   9
2019 11 11 16  04 36 46.290   +08 27 48.03  .33593 1.3040 155.9 21.1  50d   9
2019 11 11 17  04 36 48.102   +08 24 32.70  .33587 1.3039 155.9 21.1  50d   9
2019 11 11 18  04 36 49.910   +08 21 17.34  .33582 1.3039 156.0 21.1  50d   9
2019 11 11 19  04 36 51.713   +08 18 01.95  .33577 1.3038 156.0 21.1  50d   9
2019 11 11 20  04 36 53.512   +08 14 46.53  .33571 1.3038 156.0 21.1  50d   9
2019 11 11 21  04 36 55.307   +08 11 31.07  .33566 1.3037 156.0 21.1  50d   9
2019 11 11 22  04 36 57.097   +08 08 15.59  .33561 1.3037 156.0 21.1  50d   9
2019 11 11 23  04 36 58.883   +08 05 00.08  .33556 1.3036 156.0 21.1  50d   9
2019 11 12 00  04 37 00.664   +08 01 44.54  .33551 1.3036 156.0 21.1  50d   9
2019 11 12 01  04 37 02.441   +07 58 28.97  .33546 1.3035 156.0 21.1  50d   9
2019 11 12 02  04 37 04.214   +07 55 13.37  .33541 1.3035 156.0 21.1  50d  10
2019 11 12 03  04 37 05.982   +07 51 57.75  .33536 1.3034 156.0 21.1  51d  10
2019 11 12 04  04 37 07.746   +07 48 42.10  .33531 1.3034 156.0 21.1  51d  10
2019 11 12 05  04 37 09.506   +07 45 26.43  .33526 1.3033 156.0 21.1  51d  10